| time (UTC) | temp C | wind direction | speed KPH | gust KPH | rain 1hr cm | rain 24hr cm | rain mn cm | humidity % | barometer mb |
| 20260506115230 | 1 | 198 | 0.0 | 0.0 | 0.00 | 0.00 | 0.00 | 75 | 1028.8 |
| 20260506114457 | 1 | 198 | 0.0 | 0.0 | 0.00 | 0.00 | 0.00 | 75 | 1028.7 |
| 20260506114159 | 1 | 198 | 0.0 | 0.0 | 0.00 | 0.00 | 0.00 | 75 | 1028.5 |
| 20260506113357 | 1 | 198 | 0.0 | 0.0 | 0.00 | 0.00 | 0.00 | 75 | 1028.5 |
| 20260506112842 | 1 | 198 | 0.0 | 0.0 | 0.00 | 0.00 | 0.00 | 75 | 1028.4 |
| 20260506112339 | 0 | 198 | 0.0 | 0.0 | 0.00 | 0.00 | 0.00 | 75 | 1028.4 |
| 20260506111842 | 0 | 198 | 0.0 | 0.0 | 0.00 | 0.00 | 0.00 | 75 | 1028.3 |
| 20260506111610 | 0 | 198 | 0.0 | 0.0 | 0.00 | 0.00 | 0.00 | 75 | 1028.3 |
| 20260506110843 | 0 | 198 | 0.0 | 0.0 | 0.00 | 0.00 | 0.00 | 75 | 1028.2 |
| 20260506110321 | 0 | 198 | 0.0 | 0.0 | 0.00 | 0.00 | 0.00 | 76 | 1028.3 |
| 20260506105816 | 0 | 198 | 0.0 | 0.0 | 0.00 | 0.00 | 0.00 | 76 | 1028.4 |
| 20260506105317 | 0 | 198 | 0.0 | 0.0 | 0.00 | 0.00 | 0.00 | 76 | 1028.5 |
| 20260506104757 | 0 | 198 | 0.0 | 0.0 | 0.00 | 0.00 | 0.00 | 76 | 1028.6 |
| 20260506104257 | 0 | 198 | 0.0 | 0.0 | 0.00 | 0.00 | 0.00 | 76 | 1028.6 |
| 20260506103727 | 0 | 198 | 0.0 | 0.0 | 0.00 | 0.00 | 0.00 | 76 | 1028.6 |
| 20260506103217 | 0 | 198 | 0.0 | 0.0 | 0.00 | 0.00 | 0.00 | 76 | 1028.6 |
| 20260506102716 | 0 | 198 | 0.0 | 0.0 | 0.00 | 0.00 | 0.00 | 75 | 1028.6 |
| 20260506102152 | 0 | 173 | 0.0 | 0.0 | 0.00 | 0.00 | 0.00 | 75 | 1028.5 |
| 20260506101654 | 0 | 173 | 0.0 | 0.0 | 0.00 | 0.00 | 0.00 | 75 | 1028.4 |
| 20260506101139 | 0 | 173 | 0.0 | 0.0 | 0.00 | 0.00 | 0.00 | 74 | 1028.3 |
| 20260506100640 | 0 | 173 | 0.0 | 0.0 | 0.00 | 0.00 | 0.00 | 74 | 1028.2 |
| 20260506100138 | 0 | 173 | 0.0 | 0.0 | 0.00 | 0.00 | 0.00 | 74 | 1028.2 |
| 20260506095844 | 0 | 173 | 0.0 | 0.0 | 0.00 | 0.00 | 0.00 | 74 | 1028.2 |
| 20260506095048 | 0 | 173 | 0.0 | 0.0 | 0.00 | 0.00 | 0.00 | 74 | 1028.2 |
| 20260506094529 | 0 | 173 | 0.0 | 0.0 | 0.00 | 0.00 | 0.00 | 73 | 1028.2 |
| 20260506094014 | 0 | 173 | 0.0 | 0.0 | 0.00 | 0.00 | 0.00 | 73 | 1028.2 |
| 20260506093515 | 1 | 173 | 0.0 | 0.0 | 0.00 | 0.00 | 0.00 | 73 | 1028.2 |
| 20260506092959 | 1 | 173 | 0.0 | 0.0 | 0.00 | 0.00 | 0.00 | 72 | 1028.1 |
| 20260506092459 | 1 | 173 | 0.0 | 0.0 | 0.00 | 0.00 | 0.00 | 72 | 1028.0 |
| 20260506091932 | 1 | 173 | 0.0 | 0.0 | 0.00 | 0.00 | 0.00 | 72 | 1028.1 |
| 20260506091436 | 1 | 173 | 0.0 | 0.0 | 0.00 | 0.00 | 0.00 | 72 | 1028.1 |
| 20260506090916 | 1 | 173 | 0.0 | 0.0 | 0.00 | 0.00 | 0.00 | 72 | 1028.2 |
| 20260506090412 | 1 | 166 | 0.0 | 0.0 | 0.00 | 0.00 | 0.00 | 72 | 1028.3 |
| 20260506090140 | 1 | 166 | 0.0 | 0.0 | 0.00 | 0.00 | 0.00 | 72 | 1028.3 |
| 20260506085410 | 1 | 166 | 0.0 | 0.0 | 0.00 | 0.00 | 0.00 | 71 | 1028.2 |
| 20260506084907 | 1 | 166 | 0.0 | 0.0 | 0.00 | 0.00 | 0.00 | 71 | 1028.0 |
| 20260506084408 | 1 | 166 | 0.0 | 0.0 | 0.00 | 0.00 | 0.00 | 70 | 1027.9 |
| 20260506083843 | 1 | 166 | 0.0 | 0.0 | 0.00 | 0.00 | 0.00 | 69 | 1027.8 |
| 20260506083338 | 1 | 166 | 0.0 | 0.0 | 0.00 | 0.00 | 0.00 | 68 | 1027.8 |
| 20260506082837 | 1 | 166 | 0.0 | 0.0 | 0.00 | 0.00 | 0.00 | 68 | 1027.7 |
| 20260506082333 | 1 | 166 | 0.0 | 0.0 | 0.00 | 0.00 | 0.00 | 67 | 1027.7 |
| 20260506082105 | 1 | 166 | 0.0 | 0.0 | 0.00 | 0.00 | 0.00 | 67 | 1027.7 |
| 20260506081312 | 1 | 166 | 0.0 | 0.0 | 0.00 | 0.00 | 0.00 | 68 | 1027.8 |
| 20260506080804 | 1 | 166 | 0.0 | 0.0 | 0.00 | 0.00 | 0.00 | 67 | 1027.9 |
| 20260506080301 | 1 | 166 | 0.0 | 0.0 | 0.00 | 0.00 | 0.00 | 68 | 1028.0 |
| 20260506073213 | 2 | 166 | 0.0 | 0.0 | 0.00 | 0.00 | 0.00 | 63 | 1027.6 |
| 20260506072648 | 2 | 166 | 0.0 | 0.0 | 0.00 | 0.00 | 0.00 | 63 | 1027.6 |
| 20260506072144 | 2 | 166 | 0.0 | 0.0 | 0.00 | 0.00 | 0.00 | 63 | 1027.5 |
| 20260506071644 | 2 | 166 | 0.0 | 0.0 | 0.00 | 0.00 | 0.00 | 63 | 1027.5 |
| 20260506071417 | 2 | 166 | 0.0 | 0.0 | 0.00 | 0.00 | 0.00 | 63 | 1027.4 |
| 20260506070644 | 2 | 166 | 0.0 | 0.0 | 0.00 | 0.00 | 0.00 | 62 | 1027.4 |
| 20260506070145 | 2 | 166 | 0.0 | 0.0 | 0.00 | 0.00 | 0.00 | 62 | 1027.5 |
| 20260506070118 | 2 | 166 | 0.0 | 0.0 | 0.00 | 0.00 | 0.00 | 61 | 1027.5 |
| 20260506062514 | 2 | 166 | 0.0 | 0.0 | 0.00 | 0.00 | 0.00 | 61 | 1027.5 |
| 20260506061947 | 2 | 166 | 0.0 | 0.0 | 0.00 | 0.00 | 0.00 | 61 | 1027.5 |
| 20260506061419 | 3 | 169 | 0.0 | 0.0 | 0.00 | 0.00 | 0.00 | 61 | 1027.5 |
| 20260506060918 | 3 | 169 | 0.0 | 0.0 | 0.00 | 0.00 | 0.00 | 61 | 1027.5 |
| 20260506060416 | 3 | 169 | 0.0 | 0.0 | 0.00 | 0.00 | 0.00 | 61 | 1027.5 |
| 20260506051209 | 3 | 171 | 0.0 | 0.0 | 0.00 | 0.00 | 0.00 | 60 | 1027.2 |
| 20260506050708 | 3 | 171 | 0.0 | 0.0 | 0.00 | 0.00 | 0.00 | 59 | 1027.0 |
| 20260506050209 | 3 | 170 | 0.0 | 0.0 | 0.00 | 0.00 | 0.00 | 59 | 1026.8 |
| 20260506044622 | 4 | 170 | 0.0 | 0.0 | 0.00 | 0.00 | 0.00 | 57 | 1026.8 |
| 20260506044058 | 4 | 170 | 0.0 | 0.0 | 0.00 | 0.00 | 0.00 | 57 | 1026.8 |
| 20260506043601 | 4 | 170 | 0.0 | 0.0 | 0.00 | 0.00 | 0.00 | 57 | 1026.8 |
| 20260506043025 | 4 | 170 | 0.0 | 0.0 | 0.00 | 0.00 | 0.00 | 57 | 1026.8 |
| 20260506042514 | 4 | 170 | 0.0 | 0.0 | 0.00 | 0.00 | 0.00 | 57 | 1026.7 |
| 20260506041946 | 4 | 232 | 0.0 | 0.0 | 0.00 | 0.00 | 0.00 | 58 | 1026.7 |
| 20260506041421 | 4 | 232 | 0.0 | 0.0 | 0.00 | 0.00 | 0.00 | 58 | 1026.7 |
| 20260506040856 | 4 | 232 | 0.0 | 0.0 | 0.00 | 0.00 | 0.00 | 57 | 1026.7 |
| 20260506040600 | 5 | 232 | 0.0 | 0.0 | 0.00 | 0.00 | 0.00 | 58 | 1026.7 |
| 20260506035823 | 5 | 232 | 0.0 | 0.0 | 0.00 | 0.00 | 0.00 | 58 | 1026.7 |
| 20260506035317 | 5 | 232 | 0.0 | 0.0 | 0.00 | 0.00 | 0.00 | 58 | 1026.7 |
| 20260506034804 | 5 | 232 | 0.0 | 0.0 | 0.00 | 0.00 | 0.00 | 57 | 1026.6 |
| 20260506034238 | 5 | 232 | 0.0 | 0.0 | 0.00 | 0.00 | 0.00 | 56 | 1026.6 |
| 20260506033944 | 5 | 232 | 0.0 | 0.0 | 0.00 | 0.00 | 0.00 | 56 | 1026.6 |
| 20260506033416 | 5 | 232 | 0.0 | 0.0 | 0.00 | 0.00 | 0.00 | 55 | 1026.6 |
| 20260506032642 | 5 | 242 | 0.0 | 0.0 | 0.00 | 0.00 | 0.00 | 55 | 1026.5 |
| 20260506032403 | 5 | 242 | 0.0 | 0.0 | 0.00 | 0.00 | 0.00 | 55 | 1026.4 |
| 20260506031602 | 5 | 242 | 0.0 | 0.0 | 0.00 | 0.00 | 0.00 | 54 | 1026.4 |
| 20260506031100 | 5 | 242 | 0.0 | 0.0 | 0.00 | 0.00 | 0.00 | 54 | 1026.4 |
| 20260506030802 | 6 | 242 | 0.0 | 0.0 | 0.00 | 0.00 | 0.00 | 53 | 1026.4 |
| 20260506030030 | 6 | 242 | 0.0 | 0.0 | 0.00 | 0.00 | 0.00 | 53 | 1026.4 |
| 20260506030014 | 6 | 226 | 0.0 | 0.0 | 0.00 | 0.00 | 0.00 | 52 | 1026.3 |
| 20260506025016 | 6 | 226 | 0.0 | 0.0 | 0.00 | 0.00 | 0.00 | 52 | 1026.2 |
| 20260506024718 | 6 | 226 | 0.0 | 0.0 | 0.00 | 0.00 | 0.00 | 51 | 1026.1 |
| 20260506023922 | 6 | 244 | 0.0 | 1.6 | 0.00 | 0.00 | 0.00 | 50 | 1026.0 |
| 20260506023357 | 6 | 243 | 0.0 | 1.6 | 0.00 | 0.00 | 0.00 | 50 | 1025.9 |
| 20260506023126 | 6 | 217 | 0.0 | 0.0 | 0.00 | 0.00 | 0.00 | 50 | 1025.8 |
| 20260506022339 | 6 | 217 | 0.0 | 0.0 | 0.00 | 0.00 | 0.00 | 49 | 1025.8 |
| 20260506021839 | 6 | 263 | 0.0 | 0.0 | 0.00 | 0.00 | 0.00 | 48 | 1025.7 |
| 20260506021317 | 6 | 271 | 0.0 | 0.0 | 0.00 | 0.00 | 0.00 | 48 | 1025.6 |
| 20260506020750 | 6 | 238 | 0.0 | 3.2 | 0.00 | 0.00 | 0.00 | 47 | 1025.6 |
| 20260506020455 | 7 | 242 | 0.0 | 3.2 | 0.00 | 0.00 | 0.00 | 47 | 1025.5 |
| 20260506015725 | 7 | 236 | 0.0 | 1.6 | 0.00 | 0.00 | 0.00 | 47 | 1025.4 |
| 20260506015223 | 7 | 236 | 0.0 | 6.4 | 0.00 | 0.00 | 0.00 | 47 | 1025.2 |
| 20260506014726 | 7 | 285 | 0.0 | 6.4 | 0.00 | 0.00 | 0.00 | 46 | 1025.2 |
| 20260506014200 | 7 | 234 | 0.0 | 0.0 | 0.00 | 0.00 | 0.00 | 47 | 1025.2 |
| 20260506013908 | 7 | 234 | 0.0 | 1.6 | 0.00 | 0.00 | 0.00 | 47 | 1025.1 |
| 20260506013132 | 7 | 234 | 0.0 | 1.6 | 0.00 | 0.00 | 0.00 | 46 | 1025.0 |
| 20260506012635 | 7 | 234 | 0.0 | 1.6 | 0.00 | 0.00 | 0.00 | 45 | 1025.0 |
| 20260506012135 | 7 | 269 | 0.0 | 0.0 | 0.00 | 0.00 | 0.00 | 46 | 1024.8 |
| 20260506012131 | 7 | 269 | 0.0 | 0.0 | 0.00 | 0.00 | 0.00 | 46 | 1025.0 |
| 20260506011105 | 8 | 269 | 0.0 | 1.6 | 0.00 | 0.00 | 0.00 | 45 | 1024.8 |
| 20260506010539 | 8 | 203 | 0.0 | 1.6 | 0.00 | 0.00 | 0.00 | 45 | 1024.6 |
| 20260506010240 | 8 | 257 | 0.0 | 0.0 | 0.00 | 0.00 | 0.00 | 45 | 1024.6 |
| 20260506005741 | 8 | 303 | 0.0 | 0.0 | 0.00 | 0.00 | 0.00 | 44 | 1024.6 |
| 20260506005220 | 8 | 256 | 0.0 | 0.0 | 0.00 | 0.00 | 0.00 | 45 | 1024.5 |
| 20260506004454 | 8 | 290 | 0.0 | 1.6 | 0.00 | 0.00 | 0.00 | 45 | 1024.5 |
| 20260506003925 | 8 | 311 | 0.0 | 1.6 | 0.00 | 0.00 | 0.00 | 45 | 1024.5 |
| 20260506003424 | 8 | 315 | 0.0 | 0.0 | 0.00 | 0.00 | 0.00 | 45 | 1024.5 |
| 20260506002858 | 8 | 315 | 0.0 | 1.6 | 0.00 | 0.00 | 0.00 | 44 | 1024.4 |
| 20260506002329 | 8 | 5 | 0.0 | 1.6 | 0.00 | 0.00 | 0.00 | 44 | 1024.3 |
| 20260506001827 | 8 | 281 | 0.0 | 1.6 | 0.00 | 0.00 | 0.00 | 43 | 1024.3 |
| 20260506001326 | 8 | 243 | 0.0 | 0.0 | 0.00 | 0.00 | 0.00 | 43 | 1024.2 |
| 20260506000825 | 8 | 276 | 0.0 | 0.0 | 0.00 | 0.00 | 0.00 | 43 | 1024.2 |
| 20260506000558 | 8 | 276 | 0.0 | 1.6 | 0.00 | 0.00 | 0.00 | 42 | 1024.2 |
| 20260505235759 | 8 | 243 | 0.0 | 1.6 | 0.00 | 0.00 | 0.00 | 42 | 1024.2 |
| 20260505235257 | 9 | 231 | 0.0 | 0.0 | 0.00 | 0.00 | 0.00 | 41 | 1024.1 |
| 20260505234730 | 9 | 232 | 0.0 | 0.0 | 0.00 | 0.00 | 0.00 | 41 | 1024.1 |
| 20260505234227 | 9 | 260 | 0.0 | 0.0 | 0.00 | 0.00 | 0.00 | 41 | 1024.0 |
| 20260505233723 | 9 | 297 | 0.0 | 0.0 | 0.00 | 0.00 | 0.00 | 41 | 1024.0 |
| 20260505233222 | 10 | 285 | 0.0 | 6.4 | 0.00 | 0.00 | 0.00 | 39 | 1023.9 |
| 20260505232709 | 10 | 282 | 0.0 | 6.4 | 0.00 | 0.00 | 0.00 | 39 | 1023.9 |
| 20260505232209 | 10 | 250 | 0.0 | 12.9 | 0.00 | 0.00 | 0.00 | 39 | 1023.9 |
| 20260505231702 | 10 | 264 | 0.0 | 12.9 | 0.00 | 0.00 | 0.00 | 39 | 1024.0 |
| 20260505231149 | 10 | 234 | 0.0 | 0.0 | 0.00 | 0.00 | 0.00 | 39 | 1024.0 |
| 20260505230648 | 10 | 235 | 0.0 | 1.6 | 0.00 | 0.00 | 0.00 | 39 | 1024.0 |
| 20260505230357 | 10 | 283 | 0.0 | 0.0 | 0.00 | 0.00 | 0.00 | 40 | 1024.0 |
| 20260505225549 | 10 | 188 | 0.0 | 6.4 | 0.00 | 0.00 | 0.00 | 41 | 1024.0 |
| 20260505225317 | 10 | 202 | 0.0 | 6.4 | 0.00 | 0.00 | 0.00 | 39 | 1024.0 |
| 20260505224805 | 10 | 264 | 0.0 | 1.6 | 0.00 | 0.00 | 0.00 | 39 | 1023.9 |
| 20260505224006 | 10 | 291 | 0.0 | 1.6 | 0.00 | 0.00 | 0.00 | 38 | 1023.9 |
| 20260505223503 | 10 | 215 | 0.0 | 1.6 | 0.00 | 0.00 | 0.00 | 39 | 1023.9 |
| 20260505223237 | 10 | 217 | 0.0 | 16.1 | 0.00 | 0.00 | 0.00 | 39 | 1023.9 |
| 20260505222438 | 10 | 286 | 0.0 | 16.1 | 0.00 | 0.00 | 0.00 | 38 | 1023.8 |
| 20260505222414 | 10 | 242 | 0.0 | 1.6 | 0.00 | 0.00 | 0.00 | 38 | 1023.8 |
| 20260505221412 | 10 | 258 | 0.0 | 1.6 | 0.00 | 0.00 | 0.00 | 38 | 1023.8 |
| 20260505220846 | 10 | 216 | 0.0 | 1.6 | 0.00 | 0.00 | 0.00 | 39 | 1023.8 |
| 20260505220333 | 10 | 239 | 0.0 | 11.3 | 0.00 | 0.00 | 0.00 | 39 | 1023.8 |
| 20260505215836 | 10 | 187 | 0.0 | 11.3 | 0.00 | 0.00 | 0.00 | 38 | 1023.8 |
| 20260505215310 | 11 | 221 | 0.0 | 6.4 | 0.00 | 0.00 | 0.00 | 38 | 1023.9 |
| 20260505214808 | 11 | 288 | 0.0 | 12.9 | 0.00 | 0.00 | 0.00 | 38 | 1023.8 |
| 20260505214310 | 11 | 273 | 0.0 | 6.4 | 0.00 | 0.00 | 0.00 | 37 | 1023.9 |
| 20260505213742 | 11 | 242 | 0.0 | 4.8 | 0.00 | 0.00 | 0.00 | 37 | 1024.0 |
| 20260505213444 | 10 | 243 | 0.0 | 9.7 | 0.00 | 0.00 | 0.00 | 38 | 1023.9 |
| 20260505213322 | 11 | 304 | 0.0 | 9.7 | 0.00 | 0.00 | 0.00 | 38 | 1024.0 |
| 20260505212715 | 10 | 256 | 0.0 | 11.3 | 0.00 | 0.00 | 0.00 | 38 | 1024.0 |
| 20260505211709 | 10 | 301 | 0.0 | 11.3 | 0.00 | 0.00 | 0.00 | 37 | 1024.0 |
| 20260505211213 | 10 | 234 | 0.0 | 6.4 | 0.00 | 0.00 | 0.00 | 38 | 1024.1 |
| 20260505210652 | 10 | 184 | 0.0 | 6.4 | 0.00 | 0.00 | 0.00 | 40 | 1024.1 |
| 20260505210156 | 10 | 285 | 0.0 | 1.6 | 0.00 | 0.00 | 0.00 | 39 | 1024.1 |
| 20260505205638 | 10 | 265 | 0.0 | 3.2 | 0.00 | 0.00 | 0.00 | 39 | 1024.1 |
| 20260505205410 | 10 | 246 | 0.0 | 3.2 | 0.00 | 0.00 | 0.00 | 38 | 1024.1 |
| 20260505204619 | 10 | 279 | 0.0 | 0.0 | 0.00 | 0.00 | 0.00 | 38 | 1024.0 |
| 20260505204118 | 10 | 253 | 0.0 | 0.0 | 0.00 | 0.00 | 0.00 | 38 | 1024.0 |
| 20260505203618 | 10 | 273 | 0.0 | 8.0 | 0.00 | 0.00 | 0.00 | 38 | 1024.1 |
| 20260505203349 | 10 | 229 | 0.0 | 8.0 | 0.00 | 0.00 | 0.00 | 37 | 1024.1 |
| 20260505202613 | 10 | 207 | 0.0 | 1.6 | 0.00 | 0.00 | 0.00 | 38 | 1024.1 |
| 20260505202347 | 10 | 229 | 0.0 | 11.3 | 0.00 | 0.00 | 0.00 | 39 | 1024.2 |
| 20260505201552 | 10 | 235 | 0.0 | 11.3 | 0.00 | 0.00 | 0.00 | 39 | 1024.2 |
| 20260505201050 | 10 | 248 | 0.0 | 1.6 | 0.00 | 0.00 | 0.00 | 39 | 1024.3 |
| 20260505200819 | 10 | 247 | 0.0 | 3.2 | 0.00 | 0.00 | 0.00 | 38 | 1024.2 |
| 20260505200030 | 10 | 243 | 0.0 | 3.2 | 0.00 | 0.00 | 0.00 | 40 | 1024.2 |
| 20260505195531 | 10 | 243 | 0.0 | 11.3 | 0.00 | 0.00 | 0.00 | 40 | 1024.3 |
| 20260505195031 | 10 | 267 | 0.0 | 11.3 | 0.00 | 0.00 | 0.00 | 40 | 1024.3 |
| 20260505194513 | 10 | 236 | 0.0 | 1.6 | 0.00 | 0.00 | 0.00 | 40 | 1024.3 |
| 20260505194009 | 10 | 181 | 0.0 | 1.6 | 0.00 | 0.00 | 0.00 | 40 | 1024.3 |
| 20260505193742 | 10 | 258 | 0.0 | 1.6 | 0.00 | 0.00 | 0.00 | 40 | 1024.2 |
| 20260505192950 | 10 | 236 | 0.0 | 4.8 | 0.00 | 0.00 | 0.00 | 41 | 1024.3 |
| 20260505192426 | 10 | 234 | 0.0 | 4.8 | 0.00 | 0.00 | 0.00 | 41 | 1024.3 |
| 20260505191855 | 10 | 257 | 0.0 | 4.8 | 0.00 | 0.00 | 0.00 | 39 | 1024.3 |
| 20260505191356 | 10 | 248 | 0.0 | 4.8 | 0.00 | 0.00 | 0.00 | 40 | 1024.3 |
| 20260505190830 | 10 | 261 | 0.0 | 16.1 | 0.00 | 0.00 | 0.00 | 40 | 1024.3 |
| 20260505190309 | 10 | 241 | 0.0 | 16.1 | 0.00 | 0.00 | 0.00 | 40 | 1024.3 |
| 20260505185805 | 10 | 229 | 1.6 | 6.4 | 0.00 | 0.00 | 0.00 | 42 | 1024.3 |
| 20260505185238 | 9 | 269 | 1.6 | 20.9 | 0.00 | 0.00 | 0.00 | 42 | 1024.4 |
| 20260505184948 | 9 | 236 | 1.6 | 20.9 | 0.00 | 0.00 | 0.00 | 40 | 1024.4 |
| 20260505184215 | 10 | 270 | 0.0 | 12.9 | 0.00 | 0.00 | 0.00 | 39 | 1024.5 |
| 20260505183712 | 10 | 234 | 0.0 | 9.7 | 0.00 | 0.00 | 0.00 | 40 | 1024.4 |
| 20260505183146 | 10 | 255 | 0.0 | 9.7 | 0.00 | 0.00 | 0.00 | 39 | 1024.3 |
| 20260505182855 | 10 | 249 | 0.0 | 12.9 | 0.00 | 0.00 | 0.00 | 38 | 1024.3 |
| 20260505182121 | 10 | 165 | 1.6 | 12.9 | 0.00 | 0.00 | 0.00 | 39 | 1024.3 |
| 20260505181616 | 10 | 211 | 1.6 | 19.3 | 0.00 | 0.00 | 0.00 | 38 | 1024.3 |
| 20260505180506 | 10 | 209 | 1.6 | 17.7 | 0.00 | 0.00 | 0.00 | 38 | 1024.3 |
| 20260505175957 | 10 | 235 | 1.6 | 17.7 | 0.00 | 0.00 | 0.00 | 38 | 1024.2 |
| 20260505175425 | 10 | 254 | 0.0 | 17.7 | 0.00 | 0.00 | 0.00 | 37 | 1024.3 |
| 20260505175359 | 10 | 245 | 0.0 | 16.1 | 0.00 | 0.00 | 0.00 | 37 | 1024.4 |
| 20260505174604 | 10 | 242 | 0.0 | 6.4 | 0.00 | 0.00 | 0.00 | 36 | 1024.3 |
| 20260505173815 | 10 | 277 | 0.0 | 0.0 | 0.00 | 0.00 | 0.00 | 38 | 1024.3 |
| 20260505173312 | 10 | 276 | 0.0 | 3.2 | 0.00 | 0.00 | 0.00 | 39 | 1024.4 |
| 20260505172814 | 9 | 252 | 0.0 | 3.2 | 0.00 | 0.00 | 0.00 | 38 | 1024.4 |
| 20260505172246 | 9 | 248 | 0.0 | 11.3 | 0.00 | 0.00 | 0.00 | 38 | 1024.4 |
| 20260505171743 | 10 | 241 | 0.0 | 11.3 | 0.00 | 0.00 | 0.00 | 36 | 1024.4 |
| 20260505171217 | 10 | 215 | 0.0 | 14.5 | 0.00 | 0.00 | 0.00 | 36 | 1024.3 |
| 20260505170653 | 10 | 257 | 0.0 | 8.0 | 0.00 | 0.00 | 0.00 | 35 | 1024.4 |
| 20260505170356 | 10 | 257 | 0.0 | 1.6 | 0.00 | 0.00 | 0.00 | 36 | 1024.4 |
| 20260505165844 | 10 | 238 | 0.0 | 4.8 | 0.00 | 0.00 | 0.00 | 37 | 1024.5 |
| 20260505165113 | 10 | 293 | 0.0 | 4.8 | 0.00 | 0.00 | 0.00 | 37 | 1024.4 |
| 20260505164541 | 10 | 335 | 0.0 | 0.0 | 0.00 | 0.00 | 0.00 | 37 | 1024.5 |
| 20260505164018 | 10 | 234 | 0.0 | 3.2 | 0.00 | 0.00 | 0.00 | 37 | 1024.4 |
| 20260505163743 | 10 | 252 | 0.0 | 3.2 | 0.00 | 0.00 | 0.00 | 38 | 1024.4 |
| 20260505163009 | 10 | 237 | 0.0 | 1.6 | 0.00 | 0.00 | 0.00 | 37 | 1024.5 |
| 20260505162730 | 10 | 261 | 0.0 | 0.0 | 0.00 | 0.00 | 0.00 | 37 | 1024.5 |
| 20260505161956 | 10 | 316 | 0.0 | 0.0 | 0.00 | 0.00 | 0.00 | 36 | 1024.6 |
| 20260505161428 | 10 | 244 | 0.0 | 3.2 | 0.00 | 0.00 | 0.00 | 36 | 1024.6 |
| 20260505161157 | 10 | 245 | 0.0 | 3.2 | 0.00 | 0.00 | 0.00 | 36 | 1024.5 |
| 20260505160359 | 11 | 209 | 0.0 | 6.4 | 0.00 | 0.00 | 0.00 | 36 | 1024.5 |
| 20260505153242 | 10 | 227 | 0.0 | 4.8 | 0.00 | 0.00 | 0.00 | 39 | 1024.3 |
| 20260505152717 | 9 | 229 | 0.0 | 4.8 | 0.00 | 0.00 | 0.00 | 39 | 1024.4 |
| 20260505152210 | 10 | 231 | 0.0 | 4.8 | 0.00 | 0.00 | 0.00 | 39 | 1024.4 |
| 20260505151708 | 9 | 239 | 0.0 | 0.0 | 0.00 | 0.00 | 0.00 | 42 | 1024.4 |
| 20260505151207 | 9 | 238 | 0.0 | 0.0 | 0.00 | 0.00 | 0.00 | 41 | 1024.4 |
| 20260505150638 | 8 | 237 | 0.0 | 0.0 | 0.00 | 0.00 | 0.00 | 41 | 1024.4 |
| 20260505150137 | 8 | 261 | 0.0 | 0.0 | 0.00 | 0.00 | 0.00 | 42 | 1024.5 |
| 20260505140149 | 6 | 240 | 0.0 | 0.0 | 0.00 | 0.00 | 0.00 | 49 | 1023.9 |
| 20260505130221 | 4 | 236 | 0.0 | 0.0 | 0.00 | 0.00 | 0.00 | 55 | 1023.5 |
| 20260505124628 | 4 | 327 | 0.0 | 0.0 | 0.00 | 0.00 | 0.00 | 57 | 1023.4 |
| 20260505124104 | 3 | 327 | 0.0 | 0.0 | 0.00 | 0.00 | 0.00 | 58 | 1023.4 |
| 20260505123535 | 3 | 355 | 0.0 | 0.0 | 0.00 | 0.00 | 0.00 | 60 | 1023.2 |
| 20260505123306 | 3 | 5 | 0.0 | 1.6 | 0.00 | 0.00 | 0.00 | 60 | 1023.1 |
| 20260505122504 | 3 | 53 | 0.0 | 1.6 | 0.00 | 0.00 | 0.00 | 62 | 1023.0 |
| 20260505122231 | 3 | 235 | 0.0 | 0.0 | 0.00 | 0.00 | 0.00 | 64 | 1022.9 |
| 20260505121446 | 3 | 237 | 0.0 | 0.0 | 0.00 | 0.00 | 0.00 | 65 | 1022.8 |
| 20260505120937 | 3 | 237 | 0.0 | 0.0 | 0.00 | 0.00 | 0.00 | 65 | 1022.7 |
| 20260505120411 | 3 | 237 | 0.0 | 0.0 | 0.00 | 0.00 | 0.00 | 67 | 1022.7 |
| 20260505115845 | 3 | 237 | 0.0 | 0.0 | 0.00 | 0.00 | 0.00 | 68 | 1022.6 |
| 20260505115611 | 2 | 237 | 0.0 | 0.0 | 0.00 | 0.00 | 0.00 | 70 | 1022.5 |
| 20260505115446 | 3 | 237 | 0.0 | 0.0 | 0.00 | 0.00 | 0.00 | 69 | 1022.6 |